Vertical_Velocity
-1 -2 -1 -2 -2 2 -0 0 -1 -1 2 2 0 -3 -1 1 2 6 -2 -2 -4 -2 0 -2 -1 1 1 4 1 10 -4 -4 0 -3 -2 -0 -0 -5 -1 -0 -6 -3 3 -8 -1 -9 -3
-1 0 -3 -2 -1 -0 1 -1 1 3 1 3 1 2 -1 3 1 1 -1 -2 -3 -3 -0 -1 0 0 0 -4 9 -1 -1 -4 -2 -3 -2 -1 -2 -3 3 -1 -6 -3 -3 2 -5 -4 -3
-0 -2 -0 -1 -1 -1 0 -1 -2 -2 -5 0 3 0 4 -0 4 1 5 -2 7 0 -2 -3 3 2 4 -11 -2 -1 -4 -3 -1 -2 -2 -2 -4 -4 -3 -2 -0 -3 -6 -5 -0 -2 -6
-1 -1 1 2 -3 0 1 1 2 2 3 -2 5 4 4 7 -1 4 2 -0 0 0 -1 -2 3 1 3 0 -3 -2 -0 -7 -3 -3 -3 -3 -2 2 -3 -1 -4 -6 -9 -7 -0 -2 -0
1 1 1 -2 1 -3 2 4 6 6 2 4 4 1 3 4 7 1 1 -2 -1 4 -3 1 3 -2 1 -3 -1 -0 -3 -2 -2 -0 -2 -3 0 -2 -2 -3 -3 -4 -2 -2 -3 -2 -3
-0 2 0 -1 -1 -1 -3 -1 -4 -0 7 9 4 5 2 3 2 6 -0 -1 2 -0 -2 0 3 -2 -1 -2 -1 -1 -3 -3 -2 -1 -3 -1 -0 -2 -1 -3 0 3 -1 -2 -2 -3 -3
-1 -1 -2 -0 -1 -0 5 -1 -2 -15 -8 -10 1 -2 2 7 1 2 2 16 -1 -2 0 4 7 -3 -1 0 -1 -1 -5 -1 -1 -5 -2 1 -3 -1 -1 -3 -2 -0 4 -3 -4 -4 -2
4 -1 -3 -5 -5 -3 -3 -6 -7 -5 -8 -9 -7 3 4 5 1 6 -1 1 -0 3 0 3 2 -4 3 0 -0 -3 -1 -3 -5 0 -0 -4 -1 -1 -2 -2 -3 1 -1 -3 4 -0 8
-7 -5 -7 -3 1 -3 3 -2 -5 -1 -10 -5 -5 0 2 4 3 5 22 -2 10 6 0 -1 0 0 2 1 -1 1 -6 -3 1 1 -2 -0 -1 -3 0 -4 -4 0 -4 1 10 1 0
10 9 2 -1 -2 1 -6 -5 4 -5 -4 4 1 2 -5 11 2 4 -2 -0 10 4 -1 2 0 2 2 1 -0 -3 -3 -0 2 -2 -4 -1 -0 0 -1 -2 -2 -2 -0 11 -4 2 1
-9 -9 -7 6 9 3 5 5 5 -1 -3 1 5 1 -3 -3 -1 1 0 -0 4 -0 6 0 -2 1 0 1 -3 0 -3 -0 -1 -3 1 3 -0 -1 -1 -4 -6 -1 -6 31 -9 -6 48
-6 2 13 14 9 15 6 16 -1 -5 -0 2 -6 1 2 -4 5 6 2 5 -0 2 -0 1 3 1 3 3 -0 -1 -0 -2 -2 3 2 0 9 -5 1 1 -0 -5 5 -3 -4 4 -3
1 11 15 47 23 -1 20 2 -5 -1 0 -4 -4 2 0 -5 0 1 5 -0 12 2 2 4 4 -1 3 1 -0 -3 -1 -1 -2 1 -0 13 7 30 -0 2 -1 2 -1 5 5 3 3
6 17 12 12 -1 29 -1 -2 -2 0 0 -0 3 3 -0 -3 6 11 -13 10 2 3 4 2 2 3 1 4 -1 1 -1 3 2 3 -2 -3 1 7 3 2 2 11 -1 10 9 0 -0
10 14 1 7 12 5 0 -3 -1 -2 3 8 11 2 -12 -10 -8 -6 -2 -1 0 7 -1 4 0 4 2 3 4 7 1 9 1 -3 5 -4 -3 1 3 4 4 8 2 2 0 1 5
10 8 9 7 5 -0 -1 -3 -2 3 5 6 10 -0 -10 -6 -7 -0 2 -4 3 4 -2 1 -3 2 1 3 0 1 1 1 -0 7 2 -3 0 -1 1 -5 -2 -0 -1 1 2 -1 3
9 7 6 3 2 -0 -6 -1 -1 9 -2 0 7 -0 -6 -7 -1 2 6 -5 5 1 13 1 1 3 1 -2 3 0 0 -1 -0 1 4 -1 3 -0 3 5 1 1 -1 -1 1 6 -4
11 7 5 4 -2 -3 -4 -3 5 0 3 3 -0 -10 5 -3 2 5 -0 -0 -1 -2 2 1 2 5 -1 -1 -1 1 1 2 0 2 2 5 -1 2 3 2 9 5 -1 -0 2 -3 3
5 5 4 3 -6 -10 -6 1 -0 -3 -1 -5 -3 -2 -1 -1 0 2 -3 -3 -3 -2 7 -1 -1 4 -0 -1 -1 -0 1 0 -1 -1 -1 -2 3 -7 -3 -4 -4 2 1 3 4 1 -0
6 5 3 -1 -5 -3 -14 -4 -9 -6 0 -2 -4 -11 -8 -3 -2 -2 -3 -2 -2 -2 2 -3 2 3 0 -2 1 1 1 -1 -0 0 0 -1 2 -2 2 -2 -2 -3 -0 2 -0 4 0
5 2 2 -1 -7 0 -6 -3 -11 -11 -6 -4 2 -4 -5 -5 -2 -1 -1 -4 -2 0 1 -2 3 4 -3 -2 -3 0 3 0 0 -0 -1 1 -2 1 -1 -1 2 -1 -3 -3 -3 -2 0
0 1 1 -0 -3 -7 -4 1 -4 -9 -8 -7 -1 -2 -0 -1 -4 -4 -6 1 2 1 -3 -4 0 2 0 -4 -2 -2 -1 -0 1 2 1 -3 -2 2 3 3 4 2 -0 2 2 3 3
6 2 -0 -0 -3 -4 -6 -7 -3 -5 -7 -4 -3 -2 -3 -3 -2 1 4 5 0 0 -5 -2 -3 -6 1 -3 -2 -1 -1 -2 -4 -3 -2 0 1 2 4 2 3 5 3 5 4 1 4
0 1 2 -3 -0 -2 -4 -2 -5 -4 -4 -2 -3 0 -2 0 6 4 5 2 -0 -1 -2 -2 -5 -5 -7 -4 -1 -0 -1 -1 -3 -2 -5 -3 -2 -1 -3 -6 -6 -2 -5 -4 -4 -2 -2
3 -6 -4 -2 -2 -3 -4 -6 0 -2 -1 -2 -3 -1 1 2 3 3 2 3 2 1 -0 -3 -2 -5 -9 -9 -3 -5 -3 1 -1 0 -1 -3 -2 -2 -5 -4 -5 -4 -5 -4 -4 -5 -5
3 0 -3 -2 -3 -3 -1 -3 -4 -0 0 -1 -2 1 1 -0 -0 -1 -0 -0 -2 -2 -2 -1 -1 -3 -2 -3 -4 -6 -3 1 -2 -1 -0 -1 -1 -1 0 -1 -0 -1 -1 -1 -2 -3 -3
-5 8 -2 -2 -3 -4 -3 -3 -3 -4 -1 2 -2 -2 -3 -3 -1 -2 -5 -2 0 -4 -2 -2 -2 -1 -0 -3 -2 -3 -2 -0 -0 -2 -3 -3 -3 -2 -1 -1 1 1 -0 -2 -1 -1 2
-8 -6 4 -3 -2 -3 -4 -5 -5 -5 -2 -3 -1 -3 -2 -2 -3 -4 -4 -4 2 -4 -1 -0 -4 -1 -1 -2 -2 -2 -1 -0 -2 -1 -2 -3 -3 -2 -3 -3 -4 -1 -2 -2 -0 0 1
-7 -3 3 3 -3 0 -4 -2 -6 -4 -3 -4 -1 -4 -4 -1 -2 -4 -4 -3 -2 -1 -1 -2 -1 -2 -1 -1 -2 -1 -2 -0 -1 -2 -0 -2 -1 -3 -2 -0 0 0 -0 1 1 3 2
Height
5760 5752 5745 5737 5730 5721 5714 5707 5701 5695 5689 5684 5678 5674 5670 5666 5663 5661 5659 5657 5655 5657 5654 5654 5654 5653 5651 5650 5648 5647 5645 5641 5637 5633 5630 5628 5624 5622 5619 5615 5610 5612 5608 5608 5608 5607 5607
5749 5741 5732 5724 5716 5708 5700 5693 5687 5679 5673 5669 5662 5658 5653 5649 5647 5645 5644 5643 5641 5642 5643 5642 5643 5643 5642 5641 5639 5636 5634 5631 5627 5623 5620 5615 5610 5606 5603 5597 5594 5593 5592 5590 5588 5590 5590
5737 5729 5721 5711 5702 5694 5686 5678 5671 5664 5657 5652 5646 5640 5635 5631 5630 5628 5628 5628 5629 5629 5631 5633 5633 5633 5634 5631 5631 5628 5624 5622 5617 5611 5608 5603 5596 5592 5587 5584 5584 5583 5583 5581 5582 5581 5579
5724 5715 5706 5697 5687 5678 5669 5661 5653 5646 5638 5632 5627 5621 5617 5614 5611 5612 5613 5613 5615 5617 5620 5623 5624 5624 5625 5624 5622 5619 5614 5611 5606 5601 5596 5590 5585 5584 5582 5583 5583 5581 5577 5575 5573 5571 5570
5712 5701 5689 5679 5671 5662 5653 5645 5635 5625 5617 5609 5604 5598 5596 5594 5594 5594 5596 5600 5602 5606 5609 5613 5615 5615 5617 5616 5614 5609 5605 5601 5597 5593 5588 5585 5583 5582 5582 5581 5580 5577 5575 5574 5573 5571 5566
5699 5687 5677 5667 5657 5646 5635 5624 5612 5601 5592 5584 5579 5575 5573 5572 5574 5577 5580 5586 5589 5593 5600 5603 5607 5609 5610 5608 5604 5600 5597 5593 5589 5586 5585 5584 5583 5581 5580 5579 5579 5579 5577 5577 5575 5575 5573
5686 5674 5663 5652 5641 5629 5615 5602 5589 5578 5570 5561 5556 5551 5550 5551 5554 5559 5566 5576 5579 5584 5591 5596 5600 5601 5603 5600 5596 5593 5590 5585 5584 5584 5583 5583 5581 5580 5579 5580 5580 5580 5579 5578 5578 5579 5579
5673 5661 5649 5636 5622 5607 5594 5580 5569 5556 5548 5540 5533 5530 5531 5534 5539 5546 5552 5561 5568 5577 5582 5588 5592 5595 5596 5593 5591 5588 5585 5583 5584 5584 5582 5582 5580 5579 5580 5581 5582 5581 5580 5581 5581 5582 5583
5660 5647 5633 5618 5602 5585 5571 5560 5547 5536 5525 5517 5511 5509 5512 5516 5522 5533 5546 5552 5560 5567 5575 5582 5586 5589 5590 5588 5586 5584 5583 5583 5583 5583 5582 5580 5580 5580 5580 5582 5583 5582 5583 5584 5583 5583 5585
5650 5635 5619 5600 5582 5568 5555 5542 5528 5515 5508 5499 5494 5494 5498 5503 5511 5521 5534 5544 5553 5562 5570 5577 5581 5584 5584 5584 5584 5580 5581 5583 5584 5583 5581 5580 5580 5581 5580 5583 5585 5584 5585 5585 5587 5588 5589
5635 5619 5598 5582 5567 5554 5541 5526 5512 5503 5494 5487 5483 5483 5485 5491 5501 5512 5526 5537 5548 5558 5566 5574 5577 5579 5579 5583 5583 5582 5582 5583 5584 5583 5581 5583 5581 5582 5584 5586 5587 5587 5586 5588 5590 5590 5591
5624 5607 5592 5577 5559 5544 5529 5513 5503 5493 5486 5482 5480 5478 5479 5484 5494 5507 5521 5532 5544 5556 5563 5570 5572 5574 5578 5581 5582 5583 5583 5584 5585 5582 5584 5584 5584 5585 5585 5587 5588 5589 5590 5591 5593 5594 5595
5619 5602 5588 5572 5555 5536 5516 5505 5494 5487 5482 5479 5479 5477 5478 5482 5493 5506 5519 5531 5546 5553 5562 5567 5569 5573 5577 5580 5582 5584 5585 5585 5585 5586 5586 5584 5584 5585 5587 5588 5589 5591 5593 5596 5598 5598 5600
5612 5595 5580 5566 5545 5526 5509 5496 5487 5483 5480 5479 5477 5476 5479 5484 5493 5507 5519 5533 5545 5553 5559 5565 5567 5572 5577 5581 5582 5585 5586 5586 5587 5588 5589 5589 5590 5588 5589 5590 5592 5595 5595 5598 5600 5602 5602
5603 5583 5567 5548 5532 5513 5497 5490 5486 5483 5480 5477 5473 5470 5474 5485 5498 5512 5526 5535 5545 5553 5559 5564 5568 5573 5578 5581 5584 5585 5587 5588 5588 5589 5591 5592 5593 5591 5591 5592 5595 5598 5600 5602 5603 5605 5606
5594 5572 5554 5536 5516 5501 5493 5491 5489 5485 5482 5477 5475 5473 5487 5499 5509 5520 5531 5538 5548 5556 5561 5564 5567 5574 5579 5583 5586 5587 5589 5591 5592 5592 5593 5595 5597 5596 5597 5598 5600 5601 5604 5607 5609 5609 5611
5584 5564 5543 5524 5510 5501 5498 5497 5494 5491 5487 5483 5485 5496 5502 5512 5521 5530 5538 5543 5552 5557 5562 5565 5569 5575 5581 5584 5587 5589 5592 5595 5595 5596 5595 5597 5599 5601 5601 5602 5604 5606 5608 5611 5613 5616 5617
5582 5558 5538 5522 5512 5508 5508 5506 5505 5502 5500 5502 5507 5513 5518 5525 5535 5540 5545 5550 5555 5560 5563 5565 5572 5577 5582 5586 5589 5591 5594 5597 5598 5600 5600 5601 5602 5604 5605 5607 5609 5610 5613 5616 5618 5621 5623
5581 5558 5540 5527 5521 5520 5521 5520 5518 5517 5517 5518 5524 5526 5531 5536 5543 5550 5553 5556 5559 5562 5564 5567 5574 5581 5585 5589 5592 5595 5598 5600 5602 5602 5605 5606 5607 5608 5610 5613 5613 5614 5617 5618 5621 5623 5626
5584 5564 5551 5542 5538 5535 5535 5534 5535 5535 5537 5539 5541 5538 5543 5548 5552 5557 5560 5562 5564 5565 5567 5571 5578 5584 5588 5592 5596 5600 5602 5605 5606 5607 5608 5610 5611 5612 5614 5614 5615 5617 5620 5622 5624 5626 5628
5592 5577 5567 5560 5554 5551 5550 5548 5549 5551 5552 5555 5558 5558 5558 5560 5564 5566 5568 5569 5569 5568 5570 5575 5582 5587 5592 5596 5600 5604 5606 5608 5610 5611 5612 5614 5615 5615 5616 5618 5619 5620 5622 5625 5627 5630 5632
5607 5594 5585 5577 5572 5570 5565 5565 5565 5566 5567 5569 5571 5573 5573 5573 5574 5575 5575 5573 5572 5572 5574 5579 5585 5591 5596 5601 5605 5608 5610 5613 5614 5615 5616 5617 5618 5619 5620 5621 5622 5624 5626 5628 5629 5632 5635
5617 5611 5603 5597 5592 5590 5584 5583 5581 5582 5581 5582 5584 5585 5584 5583 5582 5580 5579 5579 5577 5576 5579 5584 5589 5594 5599 5604 5608 5612 5614 5616 5618 5619 5620 5620 5622 5623 5623 5624 5626 5628 5628 5630 5633 5636 5639
5638 5629 5623 5615 5610 5606 5602 5600 5598 5597 5596 5595 5594 5594 5593 5591 5588 5586 5583 5582 5580 5580 5584 5589 5595 5600 5604 5608 5612 5615 5617 5619 5621 5622 5623 5624 5624 5625 5626 5629 5631 5631 5632 5632 5634 5636 5638
5649 5642 5636 5632 5626 5621 5617 5615 5612 5610 5608 5606 5603 5602 5600 5597 5593 5591 5588 5586 5585 5586 5588 5594 5599 5604 5608 5611 5614 5616 5618 5621 5622 5624 5625 5626 5627 5628 5630 5631 5633 5634 5636 5637 5637 5638 5638
5660 5649 5645 5640 5636 5632 5629 5626 5624 5620 5618 5617 5612 5609 5606 5604 5602 5598 5596 5595 5594 5594 5595 5598 5602 5605 5609 5612 5614 5617 5618 5620 5622 5623 5625 5626 5628 5630 5630 5631 5632 5633 5635 5636 5637 5639 5639
5664 5656 5649 5645 5642 5640 5636 5635 5632 5630 5626 5623 5621 5618 5614 5612 5610 5609 5607 5605 5603 5602 5603 5604 5607 5610 5612 5614 5616 5618 5619 5620 5621 5622 5623 5625 5627 5628 5630 5631 5632 5633 5634 5636 5638 5642 5637
5668 5660 5652 5647 5644 5642 5641 5638 5638 5635 5633 5629 5626 5624 5623 5621 5620 5619 5617 5616 5615 5613 5613 5613 5614 5615 5616 5617 5619 5620 5621 5623 5624 5625 5625 5626 5628 5629 5630 5632 5633 5634 5635 5637 5638 5638 5638
5668 5662 5656 5651 5650 5646 5643 5642 5640 5639 5638 5636 5632 5630 5628 5627 5627 5626 5625 5625 5624 5623 5622 5622 5622 5622 5622 5623 5624 5624 5625 5627 5628 5628 5629 5630 5632 5632 5633 5634 5634 5634 5635 5635 5635 5635 5636